Location: Asheville, NC
(35.6000°N, 82.5500°W)
Time: 13:48:49
(UTC-04:00)

OTV 5 (USA 277) - Visible Passes

Search period start: 21 October 2017 00:00
Search period end: 31 October 2017 00:00
Orbit: 404 x 417 km, 43.0° (Epoch: 07 September)

Date Brightness Start Highest point End Pass type
(mag) Time Alt. Az. Time Alt. Az. Time Alt. Az.
21 Oct ? 20:06:09 10° WNW 20:09:31 81° NNE 20:10:11 54° ESE visible
22 Oct ? 19:15:06 10° NW 19:18:25 54° NNE 19:21:43 10° ESE visible
22 Oct ? 20:52:48 10° W 20:54:37 21° WSW 20:54:37 21° WSW visible
23 Oct ? 20:01:27 10° WNW 20:04:36 38° SW 20:06:27 20° SSE visible
24 Oct ? 19:10:15 10° WNW 19:13:35 63° SSW 19:16:55 10° SE visible
25 Oct ? 19:57:34 10° WSW 19:59:31 14° SW 20:01:26 10° S visible
26 Oct ? 19:05:51 10° W 19:08:35 23° SW 19:11:19 10° SSE visible
